N1OTX Weather Reports


Display with metric or nautical units.
time (UTC)temp
F
wind
direction
speed
MPH
gust
MPH
rain 1hr
in
rain 24hr
in
rain mn
in
humidity
%
barometer
mb
20200811163016 90 0 3.0 8.0 0.00 0.00 0.00 55 1014.0
20200811162516 91 225 4.0 10.0 0.00 0.00 0.00 54 1014.0
20200811162016 91 0 3.0 8.0 0.00 0.00 0.00 53 1014.0
20200811161516 91 293 4.0 11.0 0.00 0.00 0.00 53 1014.1
20200811161016 91 203 3.0 6.0 0.00 0.00 0.00 53 1014.1
20200811160516 91 315 3.0 11.0 0.00 0.00 0.00 53 1014.1
20200811160016 91 203 4.0 11.0 0.00 0.00 0.00 54 1014.1
20200811155516 91 203 4.0 9.0 0.00 0.00 0.00 55 1014.1
20200811155016 92 203 3.0 7.0 0.00 0.00 0.00 55 1014.1
20200811154516 91 203 3.0 9.0 0.00 0.00 0.00 54 1014.2
20200811154016 90 225 4.0 11.0 0.00 0.00 0.00 56 1014.2
20200811153516 90 338 4.0 9.0 0.00 0.00 0.00 58 1014.3
20200811153016 89 23 2.0 7.0 0.00 0.00 0.00 60 1014.3
20200811152516 89 203 2.0 10.0 0.00 0.00 0.00 58 1014.4
20200811152016 90 135 2.0 5.0 0.00 0.00 0.00 58 1014.4
20200811151516 90 180 5.0 10.0 0.00 0.00 0.00 59 1014.4
20200811151016 90 180 4.0 9.0 0.00 0.00 0.00 61 1014.5
20200811150516 89 158 2.0 7.0 0.00 0.00 0.00 61 1014.5
20200811150016 89 248 2.0 6.0 0.00 0.00 0.00 63 1014.6
20200811145516 88 225 3.0 7.0 0.00 0.00 0.00 65 1014.7
20200811145016 88 203 4.0 11.0 0.00 0.00 0.00 65 1014.6
20200811144516 88 180 4.0 9.0 0.00 0.00 0.00 64 1014.6
20200811144016 88 203 6.0 14.0 0.00 0.00 0.00 65 1014.5
20200811143516 87 203 6.0 12.0 0.00 0.00 0.00 66 1014.6
20200811143015 88 180 4.0 11.0 0.00 0.00 0.00 65 1014.5
20200811142516 87 180 4.0 8.0 0.00 0.00 0.00 67 1014.5
20200811142016 87 203 3.0 8.0 0.00 0.00 0.00 68 1014.4
20200811141516 87 180 5.0 8.0 0.00 0.00 0.00 67 1014.4
20200811141015 86 225 3.0 7.0 0.00 0.00 0.00 67 1014.4
20200811140516 86 315 2.0 7.0 0.00 0.00 0.00 68 1014.5
20200811140016 85 180 3.0 7.0 0.00 0.00 0.00 69 1014.5
20200811135516 85 293 2.0 7.0 0.00 0.00 0.00 69 1014.4
20200811135016 85 315 3.0 6.0 0.00 0.00 0.00 69 1014.4
20200811134516 85 180 4.0 9.0 0.00 0.00 0.00 70 1014.4
20200811134016 85 203 4.0 9.0 0.00 0.00 0.00 70 1014.5
20200811133516 85 180 3.0 7.0 0.00 0.00 0.00 71 1014.6
20200811133016 84 225 2.0 5.0 0.00 0.00 0.00 72 1014.6
20200811132516 84 180 3.0 8.0 0.00 0.00 0.00 74 1014.5
20200811132016 84 23 3.0 8.0 0.00 0.00 0.00 73 1014.4
20200811131516 84 203 3.0 7.0 0.00 0.00 0.00 75 1014.3
20200811131016 83 180 5.0 8.0 0.00 0.00 0.00 73 1014.3
20200811130516 83 203 2.0 6.0 0.00 0.00 0.00 74 1014.3
20200811130016 83 203 3.0 5.0 0.00 0.00 0.00 76 1014.3
20200811125516 83 203 2.0 4.0 0.00 0.00 0.00 76 1014.3
20200811125016 82 203 1.0 4.0 0.00 0.00 0.00 76 1014.3
20200811124516 82 180 1.0 5.0 0.00 0.00 0.00 75 1014.3
20200811124016 81 0 1.0 3.0 0.00 0.00 0.00 77 1014.3
20200811123516 81 203 2.0 4.0 0.00 0.00 0.00 76 1014.4
20200811123015 81 203 2.0 6.0 0.00 0.00 0.00 77 1014.4
20200811122516 81 203 3.0 7.0 0.00 0.00 0.00 79 1014.3
20200811122016 80 203 3.0 6.0 0.00 0.00 0.00 78 1014.3
20200811121516 80 293 1.0 4.0 0.00 0.00 0.00 79 1014.4
20200811121016 79 203 4.0 8.0 0.00 0.00 0.00 80 1014.4
20200811120516 79 225 2.0 4.0 0.00 0.00 0.00 80 1014.4
20200811120015 79 203 2.0 5.0 0.00 0.00 0.00 80 1014.3
20200811115516 79 158 2.0 6.0 0.00 0.00 0.00 81 1014.4
20200811115016 78 158 2.0 3.0 0.00 0.00 0.00 83 1014.4
20200811114516 78 180 2.0 5.0 0.00 0.00 0.00 83 1014.4
20200811114015 77 203 2.0 5.0 0.00 0.00 0.00 84 1014.4
20200811113516 77 225 2.0 4.0 0.00 0.00 0.00 85 1014.4
20200811113015 76 203 2.0 4.0 0.00 0.00 0.00 86 1014.4
20200811112515 75 225 3.0 5.0 0.00 0.00 0.00 87 1014.2
20200811112016 75 180 2.0 5.0 0.00 0.00 0.00 88 1014.2
20200811111516 74 203 2.0 5.0 0.00 0.00 0.00 88 1014.2
20200811111015 74 203 1.0 3.0 0.00 0.00 0.00 89 1014.2
20200811110515 74 203 2.0 4.0 0.00 0.00 0.00 89 1014.2
20200811110015 73 203 2.0 3.0 0.00 0.00 0.00 90 1014.2
20200811105515 73 180 1.0 4.0 0.00 0.00 0.00 90 1014.2
20200811105015 73 180 2.0 3.0 0.00 0.00 0.00 90 1014.2
20200811104515 73 180 1.0 3.0 0.00 0.00 0.00 91 1014.1
20200811104015 72 180 2.0 4.0 0.00 0.00 0.00 91 1014.1
20200811103516 72 180 2.0 4.0 0.00 0.00 0.00 91 1014.2
20200811103016 72 203 3.0 5.0 0.00 0.00 0.00 92 1014.2
20200811102515 72 180 2.0 5.0 0.00 0.00 0.00 92 1014.2
20200811102015 71 225 2.0 3.0 0.00 0.00 0.00 93 1014.2
20200811101515 71 225 1.0 3.0 0.00 0.00 0.00 93 1014.2
20200811101016 71 180 1.0 4.0 0.00 0.00 0.00 93 1014.1
20200811100515 71 180 1.0 4.0 0.00 0.00 0.00 93 1014.1
20200811100015 70 225 1.0 2.0 0.00 0.00 0.00 93 1014.2
20200811095515 70 0.0 1.0 0.00 0.00 0.00 93 1014.2
20200811095015 70 0.0 0.0 0.00 0.00 0.00 92 1014.2
20200811094515 70 0.0 0.0 0.00 0.00 0.00 92 1014.1
20200811094015 70 0.0 0.0 0.00 0.00 0.00 92 1014.0
20200811093515 70 0.0 0.0 0.00 0.00 0.00 92 1014.0
20200811093015 70 0.0 0.0 0.00 0.00 0.00 92 1014.0
20200811092515 70 0.0 0.0 0.00 0.00 0.00 92 1014.0
20200811092015 70 0.0 0.0 0.00 0.00 0.00 91 1013.9
20200811091516 70 0.0 0.0 0.00 0.00 0.00 91 1013.9
20200811091015 70 0.0 0.0 0.00 0.00 0.00 91 1013.9
20200811090515 71 0.0 0.0 0.00 0.00 0.00 91 1013.9
20200811090015 71 0.0 0.0 0.00 0.00 0.00 91 1013.9
20200811085515 71 0.0 0.0 0.00 0.00 0.00 91 1013.9
20200811085015 71 0.0 0.0 0.00 0.00 0.00 90 1013.9
20200811084515 71 0.0 0.0 0.00 0.00 0.00 90 1013.9
20200811084015 71 0.0 0.0 0.00 0.00 0.00 90 1013.9
20200811083515 71 0.0 0.0 0.00 0.00 0.00 89 1013.9
20200811083015 71 0.0 0.0 0.00 0.00 0.00 89 1013.8
20200811082515 72 0.0 0.0 0.00 0.00 0.00 89 1013.7
20200811082015 72 0.0 0.0 0.00 0.00 0.00 88 1013.6
20200811081515 72 0.0 0.0 0.00 0.00 0.00 88 1013.5
20200811081015 72 0.0 0.0 0.00 0.00 0.00 88 1013.5
20200811080515 72 0.0 0.0 0.00 0.00 0.00 88 1013.6
20200811080015 72 0.0 0.0 0.00 0.00 0.00 88 1013.5
20200811075515 72 0.0 0.0 0.00 0.00 0.00 88 1013.5
20200811075015 72 0.0 0.0 0.00 0.00 0.00 88 1013.4
20200811074515 72 0.0 0.0 0.00 0.00 0.00 88 1013.5
20200811074015 72 0.0 0.0 0.00 0.00 0.00 88 1013.5
20200811073515 72 0.0 0.0 0.00 0.00 0.00 87 1013.4
20200811073015 72 0.0 0.0 0.00 0.00 0.00 87 1013.4
20200811072515 72 0.0 0.0 0.00 0.00 0.00 87 1013.4
20200811072015 73 0.0 0.0 0.00 0.00 0.00 86 1013.4
20200811071515 73 0.0 0.0 0.00 0.00 0.00 86 1013.4
20200811071015 73 0.0 0.0 0.00 0.00 0.00 85 1013.4
20200811070515 73 0.0 0.0 0.00 0.00 0.00 85 1013.3
20200811070015 73 0.0 0.0 0.00 0.00 0.00 85 1013.3
20200811065515 73 0.0 0.0 0.00 0.00 0.00 84 1013.4
20200811065015 74 0.0 0.0 0.00 0.00 0.00 84 1013.4
20200811064516 74 0.0 0.0 0.00 0.00 0.00 83 1013.3
20200811064015 74 0.0 1.0 0.00 0.00 0.00 83 1013.3
20200811063515 74 180 1.0 4.0 0.00 0.00 0.00 83 1013.3
20200811063015 74 0.0 1.0 0.00 0.00 0.00 83 1013.3
20200811062515 74 0.0 3.0 0.00 0.00 0.00 83 1013.4
20200811062015 74 0.0 2.0 0.00 0.00 0.00 82 1013.4
20200811061515 74 0.0 2.0 0.00 0.00 0.00 82 1013.4
20200811061015 74 248 1.0 7.0 0.00 0.00 0.00 81 1013.5
20200811060515 74 225 1.0 2.0 0.00 0.00 0.00 82 1013.5
20200811060015 74 0.0 1.0 0.00 0.00 0.00 81 1013.5
20200811055515 74 0.0 1.0 0.00 0.00 0.00 81 1013.5
20200811055015 74 0.0 0.0 0.00 0.00 0.00 82 1013.5
20200811054515 74 0.0 1.0 0.00 0.00 0.00 81 1013.5
20200811054015 74 0.0 1.0 0.00 0.00 0.00 81 1013.5
20200811053515 75 0.0 1.0 0.00 0.00 0.00 80 1013.5
20200811053015 75 0.0 2.0 0.00 0.00 0.00 80 1013.4
20200811052515 75 0.0 1.0 0.00 0.00 0.00 79 1013.4
20200811052015 75 0.0 1.0 0.00 0.00 0.00 80 1013.4
20200811051515 76 225 1.0 2.0 0.00 0.00 0.00 77 1013.4
20200811051015 76 0.0 1.0 0.00 0.00 0.00 77 1013.4
20200811050515 75 225 1.0 2.0 0.00 0.00 0.00 78 1013.4
20200811050015 75 0.0 2.0 0.00 0.00 0.00 79 1013.4
20200811045517 75 0.0 1.0 0.00 0.00 0.00 80 1013.5
20200811045017 76 0.0 0.0 0.00 0.00 0.00 79 1013.5
20200811044517 76 0.0 3.0 0.00 0.00 0.00 78 1013.5
20200811044018 76 0.0 2.0 0.00 0.00 0.00 76 1013.5
20200811043517 76 0.0 1.0 0.00 0.00 0.00 77 1013.5
20200811043017 77 0.0 2.0 0.00 0.00 0.00 76 1013.4
20200811042517 77 0.0 2.0 0.00 0.00 0.00 76 1013.5
20200811042017 78 225 1.0 4.0 0.00 0.00 0.00 74 1013.4
20200811041517 78 225 1.0 3.0 0.00 0.00 0.00 74 1013.5
20200811041017 78 0.0 2.0 0.00 0.00 0.00 74 1013.6
20200811040517 77 225 1.0 4.0 0.00 0.00 0.00 76 1013.6
20200811040017 77 0.0 2.0 0.00 0.00 0.00 77 1013.6
20200811035517 76 0.0 2.0 0.00 0.00 0.00 79 1013.7
20200811035017 77 0.0 2.0 0.00 0.00 0.00 77 1013.6
20200811034517 77 0.0 0.0 0.00 0.00 0.00 76 1013.7
20200811034017 76 0.0 3.0 0.00 0.00 0.00 76 1013.7
20200811033517 76 0.0 0.0 0.00 0.00 0.00 75 1013.7
20200811033017 77 0.0 2.0 0.00 0.00 0.00 75 1013.7
20200811032517 76 0.0 2.0 0.00 0.00 0.00 75 1013.7
20200811032017 77 0.0 1.0 0.00 0.00 0.00 74 1013.7
20200811031518 77 0.0 2.0 0.00 0.00 0.00 74 1013.6
20200811031017 78 0.0 2.0 0.00 0.00 0.00 72 1013.5
20200811030517 78 248 1.0 4.0 0.00 0.00 0.00 71 1013.5
20200811030017 79 203 1.0 4.0 0.00 0.00 0.00 69 1013.5
20200811025517 79 203 1.0 4.0 0.00 0.00 0.00 68 1013.5
20200811025017 79 203 1.0 3.0 0.00 0.00 0.00 68 1013.5
20200811024517 80 203 1.0 2.0 0.00 0.00 0.00 67 1013.4
20200811024017 80 225 2.0 3.0 0.00 0.00 0.00 67 1013.4
20200811023517 80 225 1.0 3.0 0.00 0.00 0.00 67 1013.4
20200811023017 80 203 2.0 4.0 0.00 0.00 0.00 66 1013.4
20200811022517 81 203 3.0 5.0 0.00 0.00 0.00 65 1013.4
20200811022017 80 203 2.0 5.0 0.00 0.00 0.00 66 1013.4
20200811021517 80 180 1.0 3.0 0.00 0.00 0.00 66 1013.5
20200811021017 81 203 1.0 4.0 0.00 0.00 0.00 67 1013.5
20200811020517 81 158 1.0 5.0 0.00 0.00 0.00 65 1013.5
20200811020017 81 270 1.0 3.0 0.00 0.00 0.00 65 1013.5
20200811015518 82 225 2.0 7.0 0.00 0.00 0.00 65 1013.6
20200811015017 82 203 2.0 4.0 0.00 0.00 0.00 64 1013.7
20200811014517 82 203 2.0 6.0 0.00 0.00 0.00 65 1013.7
20200811014017 82 158 2.0 7.0 0.00 0.00 0.00 66 1013.8
20200811013518 81 135 2.0 6.0 0.00 0.00 0.00 68 1013.8
20200811013017 81 293 1.0 3.0 0.00 0.00 0.00 69 1013.7
20200811012517 81 293 1.0 3.0 0.00 0.00 0.00 71 1013.7
20200811012017 81 203 1.0 3.0 0.00 0.00 0.00 72 1013.6
20200811011517 81 203 1.0 4.0 0.00 0.00 0.00 69 1013.5
20200811011017 81 180 1.0 3.0 0.00 0.00 0.00 69 1013.6
20200811010517 81 180 1.0 3.0 0.00 0.00 0.00 72 1013.5
20200811010017 80 0.0 1.0 0.00 0.00 0.00 71 1013.5
20200811005516 81 0.0 1.0 0.00 0.00 0.00 70 1013.3
20200811005017 81 0.0 2.0 0.00 0.00 0.00 71 1013.3
20200811004517 80 0.0 0.0 0.00 0.00 0.00 71 1013.3
20200811004017 80 0.0 2.0 0.00 0.00 0.00 72 1013.3
20200811003517 81 180 1.0 3.0 0.00 0.00 0.00 72 1013.1
20200811003050 81 0.0 4.0 0.00 0.00 0.00 71 1013.1
20200811002759 80 0.0 0.0 0.00 0.00 0.00 71 1013.0
20200811002046 81 0.0 0.0 0.00 0.00 0.00 73 1012.9
20200811000627 81 0.0 0.0 0.00 0.00 0.00 70 1012.8
20200810235706 81 0.0 0.0 0.00 0.00 0.00 69 1012.8
20200810235057 81 0.0 0.0 0.00 0.00 0.00 70 1012.8
20200810234204 82 0.0 0.0 0.00 0.00 0.00 68 1013.0
20200810233549 82 0.0 1.0 0.00 0.00 0.00 68 1013.0
20200810232741 82 0.0 1.0 0.00 0.00 0.00 66 1013.0
20200810232041 83 0.0 1.0 0.00 0.00 0.00 65 1013.0
20200810231135 83 0.0 0.0 0.00 0.00 0.00 64 1012.9
20200810230310 84 0.0 2.0 0.00 0.00 0.00 63 1012.8
20200810225402 86 0.0 2.0 0.00 0.00 0.00 62 1012.8
20200810223854 86 113 1.0 2.0 0.00 0.00 0.00 56 1012.7
20200810223310 87 90 1.0 2.0 0.00 0.00 0.00 55 1012.7
20200810222728 87 0 1.0 3.0 0.00 0.00 0.00 54 1012.8
20200810222057 89 315 1.0 3.0 0.00 0.00 0.00 51 1012.8
20200810221534 89 293 2.0 5.0 0.00 0.00 0.00 51 1012.8
20200810221030 89 315 2.0 9.0 0.00 0.00 0.00 51 1012.9
20200810220526 88 270 1.0 3.0 0.00 0.00 0.00 52 1012.9
20200810215917 88 293 1.0 3.0 0.00 0.00 0.00 51 1012.9
20200810214749 89 248 2.0 10.0 0.00 0.00 0.00 52 1012.8
20200810214025 90 293 2.0 4.0 0.00 0.00 0.00 50 1012.8
20200810213517 89 225 3.0 8.0 0.00 0.00 0.00 51 1012.8
20200810213016 89 180 2.0 5.0 0.00 0.00 0.00 51 1012.8
20200810212519 90 45 2.0 6.0 0.00 0.00 0.00 52 1012.8
20200810212016 90 203 4.0 10.0 0.00 0.00 0.00 50 1012.8
20200810211519 90 203 4.0 9.0 0.00 0.00 0.00 49 1012.9
20200810210943 90 315 3.0 9.0 0.00 0.00 0.00 50 1013.0
20200810205856 90 180 3.0 7.0 0.00 0.00 0.00 49 1013.0
20200810205016 91 180 5.0 11.0 0.00 0.00 0.00 48 1013.1
20200810204516 90 270 3.0 9.0 0.00 0.00 0.00 47 1013.1
20200810204016 90 23 3.0 7.0 0.00 0.00 0.00 49 1013.2
20200810203516 90 23 1.0 3.0 0.00 0.00 0.00 48 1013.2
20200810203016 91 180 2.0 4.0 0.00 0.00 0.00 49 1013.2
20200810202516 91 180 3.0 7.0 0.00 0.00 0.00 48 1013.2
20200810202016 92 203 3.0 9.0 0.00 0.00 0.00 49 1013.3
20200810201516 92 203 3.0 8.0 0.00 0.00 0.00 50 1013.3
20200810201016 92 225 3.0 10.0 0.00 0.00 0.00 48 1013.4
20200810200516 91 45 2.0 9.0 0.00 0.00 0.00 48 1013.4
20200810200016 91 45 1.0 4.0 0.00 0.00 0.00 50 1013.5
20200810195516 92 203 4.0 12.0 0.00 0.00 0.00 47 1013.4
20200810195016 92 158 2.0 6.0 0.00 0.00 0.00 49 1013.5
20200810194516 91 225 3.0 8.0 0.00 0.00 0.00 50 1013.4
20200810194016 92 90 3.0 9.0 0.00 0.00 0.00 49 1013.4
20200810193516 91 45 2.0 5.0 0.00 0.00 0.00 49 1013.5
20200810193016 91 270 2.0 8.0 0.00 0.00 0.00 48 1013.6
20200810192516 92 203 3.0 6.0 0.00 0.00 0.00 50 1013.5
20200810192016 91 180 3.0 8.0 0.00 0.00 0.00 50 1013.5
20200810191516 91 203 3.0 7.0 0.00 0.00 0.00 50 1013.5
20200810191016 91 203 4.0 10.0 0.00 0.00 0.00 49 1013.6
20200810190518 91 203 4.0 8.0 0.00 0.00 0.00 48 1013.6
20200810190016 91 180 3.0 9.0 0.00 0.00 0.00 51 1013.7
20200810185516 91 135 3.0 8.0 0.00 0.00 0.00 49 1013.8
20200810185016 90 180 3.0 6.0 0.00 0.00 0.00 50 1013.8
20200810184516 90 338 2.0 8.0 0.00 0.00 0.00 51 1013.9
20200810184016 89 315 1.0 3.0 0.00 0.00 0.00 56 1013.9
20200810183516 89 315 2.0 5.0 0.00 0.00 0.00 53 1013.9
20200810183016 89 270 1.0 4.0 0.00 0.00 0.00 56 1013.9
20200810182516 88 270 1.0 3.0 0.00 0.00 0.00 55 1014.0
20200810182016 88 225 1.0 3.0 0.00 0.00 0.00 56 1014.1
20200810181516 87 68 2.0 4.0 0.00 0.00 0.00 55 1014.0
20200810181016 88 23 2.0 6.0 0.00 0.00 0.00 53 1014.2
20200810180516 89 270 3.0 6.0 0.00 0.00 0.00 54 1014.2
20200810180016 89 270 3.0 7.0 0.00 0.00 0.00 51 1014.2
20200810175516 91 203 4.0 9.0 0.00 0.00 0.00 51 1014.2
20200810175017 90 180 2.0 6.0 0.00 0.00 0.00 53 1014.3
20200810174519 90 180 1.0 4.0 0.00 0.00 0.00 55 1014.4
20200810174016 89 203 2.0 4.0 0.00 0.00 0.00 53 1014.5
20200810173516 89 293 3.0 9.0 0.00 0.00 0.00 54 1014.5
20200810173017 90 23 2.0 6.0 0.00 0.00 0.00 53 1014.4
20200810172518 90 338 3.0 6.0 0.00 0.00 0.00 50 1014.5
20200810172017 90 0 2.0 9.0 0.00 0.00 0.00 54 1014.5
20200810171516 90 270 2.0 6.0 0.00 0.00 0.00 52 1014.4
20200810171016 89 90 2.0 5.0 0.00 0.00 0.00 55 1014.5
20200810170516 88 23 3.0 9.0 0.00 0.00 0.00 53 1014.6
20200810170016 89 158 2.0 10.0 0.00 0.00 0.00 53 1014.6
20200810165516 89 270 2.0 10.0 0.00 0.00 0.00 53 1014.6
20200810165016 88 68 1.0 4.0 0.00 0.00 0.00 57 1014.7
20200810164516 87 338 1.0 5.0 0.00 0.00 0.00 55 1014.7
20200810164016 87 45 2.0 4.0 0.00 0.00 0.00 56 1014.7
20200810163516 88 90 1.0 3.0 0.00 0.00 0.00 54 1014.8